Whidbey Island, WA
on Sunday, January 27, 2013

Sunday
Previous Day Next Day
Daily Summary
 ActualAverageRecord
Temperature
Mean Temperature °F °F  
Max Temperature 43°F 46°F 54°F (2005)
Min Temperature 37°F 35°F 23°F (1997)
Degree Days
Heating Degree Days 26    
Moisture
Dew Point 37°F   
Average Humidity 90    
Maximum Humidity 93    
Minimum Humidity 82    
Precipitation
Precipitation 0.49 in in in ()
Wind
Wind Speed 6 mph   
Max Wind Speed 18 mph   
Max Gust Speed 22 mph   
Visibility 9 miles   
Events Rain   
Averages and records for this station are not official NWS values.
Key: T is trace of precipitation, MM is missing value
Source: NWS Daily Summary
Seasonal Weather Averages
Time(PST)TemperatureDew PointHumidity Pressure Visibility Wind DirectionWind SpeedGust SpeedPrecipitationEvents Conditions
12:56 AM 39.9°F 37.9°F 93% 30.03 in 10.0 miles SE 4.6 mph - N/A   Overcast
1:07 AM 39.2°F 37.4°F 93% 30.02 in 10.0 miles SE 5.8 mph - N/A   Overcast
1:14 AM 41.0°F 37.4°F 87% 30.02 in 8.0 miles Variable 4.6 mph - 0.00 in Rain Light Rain
1:21 AM 42.8°F 39.2°F 87% 30.02 in 6.0 miles SW 11.5 mph - 0.00 in Rain Light Rain
1:37 AM 41.0°F 37.4°F 87% 30.02 in 8.0 miles SSW 6.9 mph - 0.00 in Rain Light Rain
1:50 AM 41.0°F 37.4°F 87% 30.02 in 10.0 miles SSW 5.8 mph - 0.00 in   Overcast
1:56 AM 41.0°F 37.9°F 89% 30.03 in 10.0 miles SSW 4.6 mph - 0.00 in   Overcast
2:42 AM 37.4°F 35.6°F 93% 30.02 in 10.0 miles South 6.9 mph - N/A   Mostly Cloudy
2:56 AM 39.0°F 36.0°F 89% 30.04 in 10.0 miles South 4.6 mph - N/A   Mostly Cloudy
3:30 AM 39.2°F 37.4°F 93% 30.02 in 10.0 miles SSE 3.5 mph - 0.00 in Rain Light Rain
3:47 AM 39.2°F 37.4°F 93% 30.02 in 10.0 miles SE 3.5 mph - 0.01 in   Overcast
3:56 AM 39.9°F 37.9°F 93% 30.03 in 10.0 miles SSE 5.8 mph - 0.01 in   Overcast
4:20 AM 41.0°F 37.4°F 87% 30.02 in 5.0 miles SSW 3.5 mph - 0.02 in Rain Light Rain
4:27 AM 41.0°F 37.4°F 87% 30.02 in 10.0 miles SSW 3.5 mph - 0.02 in   Overcast
4:56 AM 41.0°F 37.9°F 89% 30.04 in 10.0 miles SSE 6.9 mph - 0.02 in   Overcast
5:42 AM 39.2°F 37.4°F 93% 30.02 in 10.0 miles SSE 4.6 mph - 0.00 in Rain Light Rain
5:56 AM 39.9°F 37.9°F 93% 30.03 in 8.0 miles SSE 5.8 mph - 0.00 in Rain Light Rain
6:18 AM 39.2°F 37.4°F 93% 30.01 in 10.0 miles SSE 6.9 mph - 0.00 in   Overcast
6:56 AM 39.9°F 37.0°F 89% 30.03 in 10.0 miles South 5.8 mph - 0.00 in   Overcast
7:18 AM 39.2°F 37.4°F 93% 30.02 in 10.0 miles SSE 8.1 mph - 0.00 in Rain Light Rain
7:56 AM 39.9°F 37.0°F 89% 30.03 in 10.0 miles SSE 8.1 mph - 0.02 in Rain Light Rain
8:56 AM 39.0°F 37.0°F 93% 30.04 in 6.0 miles SSE 6.9 mph - 0.04 in Rain Light Rain
9:56 AM 39.9°F 37.0°F 89% 30.05 in 5.0 miles SSE 5.8 mph - 0.06 in Rain Light Rain
10:56 AM 39.9°F 37.0°F 89% 30.05 in 10.0 miles SE 8.1 mph - 0.00 in Rain Light Rain
11:56 AM 41.0°F 37.9°F 89% 30.04 in 7.0 miles SSE 12.7 mph - 0.03 in Rain Light Rain
12:56 PM 41.0°F 37.9°F 89% 30.01 in 10.0 miles SSE 10.4 mph - 0.01 in Rain Light Rain
1:56 PM 41.0°F 37.9°F 89% 30.00 in 9.0 miles SSE 10.4 mph - 0.02 in Rain Light Rain
2:56 PM 41.0°F 37.9°F 89% 30.01 in 8.0 miles South 4.6 mph - 0.02 in Rain Light Rain
3:56 PM 41.0°F 37.0°F 86% 30.01 in 7.0 miles South 4.6 mph - 0.06 in Rain Light Rain
4:56 PM 39.9°F 37.0°F 89% 30.00 in 10.0 miles SSE 4.6 mph - 0.01 in   Overcast
5:04 PM 39.2°F 37.4°F 93% 29.98 in 10.0 miles SSE 4.6 mph - 0.00 in Rain Light Rain
5:56 PM 39.0°F 37.0°F 93% 30.00 in 10.0 miles SSE 3.5 mph - 0.01 in Rain Light Rain
6:56 PM 39.0°F 36.0°F 89% 30.00 in 10.0 miles Calm Calm - 0.00 in Rain Light Rain
7:56 PM 39.9°F 37.9°F 93% 30.00 in 9.0 miles SE 3.5 mph - 0.01 in Rain Light Rain
8:56 PM 39.9°F 37.9°F 93% 30.00 in 10.0 miles SSE 8.1 mph - 0.02 in Rain Light Rain
9:56 PM 39.0°F 37.0°F 93% 30.00 in 6.0 miles SSE 5.8 mph - 0.04 in Rain Light Rain
10:56 PM 39.9°F 37.0°F 89% 29.99 in 5.0 miles SSE 5.8 mph - 0.06 in Rain Rain
11:35 PM 39.2°F 37.4°F 93% 29.98 in 10.0 miles ESE 6.9 mph - 0.05 in   Overcast
11:56 PM 43.0°F 37.9°F 82% 30.00 in 10.0 miles West 18.4 mph 21.9 mph 0.05 in   Overcast
Moon Phase
Jan. 27 Feb. 03 Feb. 10 Feb. 17 Feb. 25
Sunrise:07:45 AM (PST) Moon Rise:06:11 PM (PST)1/27
Sunset:05:02 PM (PST) Moon Set:07:33 AM (PST)1/27

Copyright © 2014 The Weather Underground, Inc.